Year,Month,Day,Hour,Minute,Value (Times are PST for temperature in C)
2015,06,27,00,00,21.40
2015,06,27,00,01,21.40
2015,06,27,00,02,21.40
2015,06,27,00,03,21.30
2015,06,27,00,04,21.30
2015,06,27,00,05,21.30
2015,06,27,00,06,21.30
2015,06,27,00,07,21.30
2015,06,27,00,08,21.20
2015,06,27,00,09,21.20
2015,06,27,00,10,21.20
2015,06,27,00,11,21.20
2015,06,27,00,12,21.20
2015,06,27,00,13,21.20
2015,06,27,00,14,21.20
2015,06,27,00,15,21.20
2015,06,27,00,16,21.20
2015,06,27,00,17,21.20
2015,06,27,00,18,21.20
2015,06,27,00,19,21.20
2015,06,27,00,20,21.20
2015,06,27,00,21,21.20
2015,06,27,00,22,21.20
2015,06,27,00,23,21.20
2015,06,27,00,24,21.10
2015,06,27,00,25,21.10
2015,06,27,00,26,21.10
2015,06,27,00,27,21.10
2015,06,27,00,28,21.10
2015,06,27,00,29,21.10
2015,06,27,00,30,21.10
2015,06,27,00,31,21.10
2015,06,27,00,32,21.10
2015,06,27,00,33,21.10
2015,06,27,00,34,21.10
2015,06,27,00,35,21.10
2015,06,27,00,36,21.10
2015,06,27,00,37,21.10
2015,06,27,00,38,21.10
2015,06,27,00,39,21.10
2015,06,27,00,40,21.10
2015,06,27,00,41,21.10
2015,06,27,00,42,21.10
2015,06,27,00,43,21.10
2015,06,27,00,44,21.10
2015,06,27,00,45,21.00
2015,06,27,00,46,21.00
2015,06,27,00,47,21.00
2015,06,27,00,48,20.90
2015,06,27,00,49,20.90
2015,06,27,00,50,20.90
2015,06,27,00,51,20.90
2015,06,27,00,52,20.90
2015,06,27,00,53,20.90
2015,06,27,00,54,20.90
2015,06,27,00,55,20.90
2015,06,27,00,56,21.00
2015,06,27,00,57,21.00
2015,06,27,00,58,21.10
2015,06,27,00,59,21.20
2015,06,27,01,00,21.30
2015,06,27,01,01,21.40
2015,06,27,01,02,21.50
2015,06,27,01,03,21.70
2015,06,27,01,04,21.80
2015,06,27,01,05,21.90
2015,06,27,01,06,22.00
2015,06,27,01,07,22.00
2015,06,27,01,08,22.10
2015,06,27,01,09,22.10
2015,06,27,01,10,22.20
2015,06,27,01,11,22.20
2015,06,27,01,12,22.20
2015,06,27,01,13,22.20
2015,06,27,01,14,22.30
2015,06,27,01,15,22.30
2015,06,27,01,16,22.30
2015,06,27,01,17,22.30
2015,06,27,01,18,22.30
2015,06,27,01,19,22.30
2015,06,27,01,20,22.20
2015,06,27,01,21,22.10
2015,06,27,01,22,22.10
2015,06,27,01,23,22.00
2015,06,27,01,24,22.00
2015,06,27,01,25,22.00
2015,06,27,01,26,22.00
2015,06,27,01,27,22.00
2015,06,27,01,28,22.00
2015,06,27,01,29,22.00
2015,06,27,01,30,22.00
2015,06,27,01,31,22.00
2015,06,27,01,32,22.00
2015,06,27,01,33,22.00
2015,06,27,01,34,22.10
2015,06,27,01,35,22.10
2015,06,27,01,36,22.10
2015,06,27,01,37,22.20
2015,06,27,01,38,22.20
2015,06,27,01,39,22.30
2015,06,27,01,40,22.30
2015,06,27,01,41,22.30
2015,06,27,01,42,22.30
2015,06,27,01,43,22.30
2015,06,27,01,44,22.30
2015,06,27,01,45,22.20
2015,06,27,01,46,22.20
2015,06,27,01,47,22.20
2015,06,27,01,48,22.10
2015,06,27,01,49,22.10
2015,06,27,01,50,22.00
2015,06,27,01,51,21.90
2015,06,27,01,52,21.80
2015,06,27,01,53,21.70
2015,06,27,01,54,21.60
2015,06,27,01,55,21.50
2015,06,27,01,56,21.40
2015,06,27,01,57,21.30
2015,06,27,01,58,21.30
2015,06,27,01,59,21.30
2015,06,27,02,00,21.30
2015,06,27,02,01,21.30
2015,06,27,02,02,21.30
2015,06,27,02,03,21.30
2015,06,27,02,04,21.30
2015,06,27,02,05,21.30
2015,06,27,02,06,21.20
2015,06,27,02,07,21.10
2015,06,27,02,08,21.10
2015,06,27,02,09,21.00
2015,06,27,02,10,20.90
2015,06,27,02,11,20.90
2015,06,27,02,12,20.80
2015,06,27,02,13,20.80
2015,06,27,02,14,20.80
2015,06,27,02,15,20.80
2015,06,27,02,16,20.80
2015,06,27,02,17,20.70
2015,06,27,02,18,20.60
2015,06,27,02,19,20.50
2015,06,27,02,20,20.40
2015,06,27,02,21,20.30
2015,06,27,02,22,20.20
2015,06,27,02,23,20.10
2015,06,27,02,24,20.10
2015,06,27,02,25,20.00
2015,06,27,02,26,19.90
2015,06,27,02,27,19.90
2015,06,27,02,28,19.90
2015,06,27,02,29,19.80
2015,06,27,02,30,19.90
2015,06,27,02,31,19.90
2015,06,27,02,32,19.90
2015,06,27,02,33,19.90
2015,06,27,02,34,19.90
2015,06,27,02,35,19.90
2015,06,27,02,36,19.90
2015,06,27,02,37,20.00
2015,06,27,02,38,20.00
2015,06,27,02,39,20.10
2015,06,27,02,40,20.20
2015,06,27,02,41,20.20
2015,06,27,02,42,20.30
2015,06,27,02,43,20.40
2015,06,27,02,44,20.40
2015,06,27,02,45,20.40
2015,06,27,02,46,20.50
2015,06,27,02,47,20.50
2015,06,27,02,48,20.60
2015,06,27,02,49,20.60
2015,06,27,02,50,20.60
2015,06,27,02,51,20.70
2015,06,27,02,52,20.70
2015,06,27,02,53,20.70
2015,06,27,02,54,20.80
2015,06,27,02,55,20.80
2015,06,27,02,56,20.90
2015,06,27,02,57,20.90
2015,06,27,02,58,20.90
2015,06,27,02,59,20.90
2015,06,27,03,00,20.90
2015,06,27,03,01,20.80
2015,06,27,03,02,20.80
2015,06,27,03,03,20.80
2015,06,27,03,04,20.80
2015,06,27,03,05,20.80
2015,06,27,03,06,20.80
2015,06,27,03,07,20.90
2015,06,27,03,08,20.90
2015,06,27,03,09,20.90
2015,06,27,03,10,20.90
2015,06,27,03,11,20.90
2015,06,27,03,12,20.90
2015,06,27,03,13,20.90
2015,06,27,03,14,20.90
2015,06,27,03,15,20.90
2015,06,27,03,16,20.90
2015,06,27,03,17,20.90
2015,06,27,03,18,20.90
2015,06,27,03,19,20.90
2015,06,27,03,20,20.80
2015,06,27,03,21,20.80
2015,06,27,03,22,20.90
2015,06,27,03,23,20.90
2015,06,27,03,24,20.80
2015,06,27,03,25,20.80
2015,06,27,03,26,20.80
2015,06,27,03,27,20.90
2015,06,27,03,28,20.90
2015,06,27,03,29,20.90
2015,06,27,03,30,20.90
2015,06,27,03,31,20.90
2015,06,27,03,32,20.90
2015,06,27,03,33,21.00
2015,06,27,03,34,21.00
2015,06,27,03,35,21.10
2015,06,27,03,36,21.20
2015,06,27,03,37,21.20
2015,06,27,03,38,21.30
2015,06,27,03,39,21.30
2015,06,27,03,40,21.40
2015,06,27,03,41,21.40
2015,06,27,03,42,21.50
2015,06,27,03,43,21.50
2015,06,27,03,44,21.50
2015,06,27,03,45,21.40
2015,06,27,03,46,21.40
2015,06,27,03,47,21.30
2015,06,27,03,48,21.20
2015,06,27,03,49,21.20
2015,06,27,03,50,21.10
2015,06,27,03,51,21.00
2015,06,27,03,52,20.90
2015,06,27,03,53,20.80
2015,06,27,03,54,20.80
2015,06,27,03,55,20.70
2015,06,27,03,56,20.60
2015,06,27,03,57,20.50
2015,06,27,03,58,20.40
2015,06,27,03,59,20.30
2015,06,27,04,00,20.30
2015,06,27,04,01,20.30
2015,06,27,04,02,20.30
2015,06,27,04,03,20.30
2015,06,27,04,04,20.40
2015,06,27,04,05,20.40
2015,06,27,04,06,20.40
2015,06,27,04,07,20.50
2015,06,27,04,08,20.50
2015,06,27,04,09,20.60
2015,06,27,04,10,20.70
2015,06,27,04,11,20.70
2015,06,27,04,12,20.70
2015,06,27,04,13,20.70
2015,06,27,04,14,20.70
2015,06,27,04,15,20.70
2015,06,27,04,16,20.70
2015,06,27,04,17,20.50
2015,06,27,04,18,20.10
2015,06,27,04,19,20.00
2015,06,27,04,20,19.80
2015,06,27,04,21,19.70
2015,06,27,04,22,19.50
2015,06,27,04,23,19.40
2015,06,27,04,24,19.30
2015,06,27,04,25,19.30
2015,06,27,04,26,19.20
2015,06,27,04,27,19.20
2015,06,27,04,28,19.20
2015,06,27,04,29,19.10
2015,06,27,04,30,19.10
2015,06,27,04,31,19.10
2015,06,27,04,32,19.20
2015,06,27,04,33,19.20
2015,06,27,04,34,19.20
2015,06,27,04,35,19.20
2015,06,27,04,36,19.20
2015,06,27,04,37,19.20
2015,06,27,04,38,19.20
2015,06,27,04,39,19.30
2015,06,27,04,40,19.30
2015,06,27,04,41,19.30
2015,06,27,04,42,19.30
2015,06,27,04,43,19.30
2015,06,27,04,44,19.30
2015,06,27,04,45,19.40
2015,06,27,04,46,19.40
2015,06,27,04,47,19.40
2015,06,27,04,48,19.50
2015,06,27,04,49,19.60
2015,06,27,04,50,19.80
2015,06,27,04,51,19.90
2015,06,27,04,52,20.00
2015,06,27,04,53,20.00
2015,06,27,04,54,20.10
2015,06,27,04,55,20.10
2015,06,27,04,56,20.10
2015,06,27,04,57,20.10
2015,06,27,04,58,20.10
2015,06,27,04,59,20.10
2015,06,27,05,00,20.10
2015,06,27,05,01,20.00
2015,06,27,05,02,19.90
2015,06,27,05,03,19.80
2015,06,27,05,04,19.70
2015,06,27,05,05,19.60
2015,06,27,05,06,19.50
2015,06,27,05,07,19.40
2015,06,27,05,08,19.30
2015,06,27,05,09,19.20
2015,06,27,05,10,19.10
2015,06,27,05,11,19.00
2015,06,27,05,12,19.00
2015,06,27,05,13,19.00
2015,06,27,05,14,19.00
2015,06,27,05,15,19.00
2015,06,27,05,16,19.00
2015,06,27,05,17,18.90
2015,06,27,05,18,18.90
2015,06,27,05,19,18.90
2015,06,27,05,20,18.90
2015,06,27,05,21,18.80
2015,06,27,05,22,18.80
2015,06,27,05,23,18.70
2015,06,27,05,24,18.70
2015,06,27,05,25,18.60
2015,06,27,05,26,18.60
2015,06,27,05,27,18.50
2015,06,27,05,28,18.50
2015,06,27,05,29,18.40
2015,06,27,05,30,18.40
2015,06,27,05,31,18.40
2015,06,27,05,32,18.40
2015,06,27,05,33,18.40
2015,06,27,05,34,18.40
2015,06,27,05,35,18.40
2015,06,27,05,36,18.40
2015,06,27,05,37,18.40
2015,06,27,05,38,18.40
2015,06,27,05,39,18.40
2015,06,27,05,40,18.40
2015,06,27,05,41,18.40
2015,06,27,05,42,18.50
2015,06,27,05,43,18.50
2015,06,27,05,44,18.50
2015,06,27,05,45,18.50
2015,06,27,05,46,18.50
2015,06,27,05,47,18.50
2015,06,27,05,48,18.60
2015,06,27,05,49,18.60
2015,06,27,05,50,18.60
2015,06,27,05,51,18.70
2015,06,27,05,52,18.70
2015,06,27,05,53,18.70
2015,06,27,05,54,18.70
2015,06,27,05,55,18.70
2015,06,27,05,56,18.80
2015,06,27,05,57,18.80
2015,06,27,05,58,18.80
2015,06,27,05,59,18.80
2015,06,27,06,00,18.90
2015,06,27,06,01,18.90
2015,06,27,06,02,18.90
2015,06,27,06,03,19.00
2015,06,27,06,04,19.00
2015,06,27,06,05,19.10
2015,06,27,06,06,19.10
2015,06,27,06,07,19.20
2015,06,27,06,08,19.20
2015,06,27,06,09,19.30
2015,06,27,06,10,19.30
2015,06,27,06,11,19.30
2015,06,27,06,12,19.30
2015,06,27,06,13,19.40
2015,06,27,06,14,19.40
2015,06,27,06,15,19.40
2015,06,27,06,16,19.40
2015,06,27,06,17,19.40
2015,06,27,06,18,19.40
2015,06,27,06,19,19.40
2015,06,27,06,20,19.40
2015,06,27,06,21,19.50
2015,06,27,06,22,19.50
2015,06,27,06,23,19.50
2015,06,27,06,24,19.60
2015,06,27,06,25,19.60
2015,06,27,06,26,19.70
2015,06,27,06,27,19.70
2015,06,27,06,28,19.70
2015,06,27,06,29,19.70
2015,06,27,06,30,19.80
2015,06,27,06,31,19.80
2015,06,27,06,32,19.80
2015,06,27,06,33,19.90
2015,06,27,06,34,19.90
2015,06,27,06,35,19.90
2015,06,27,06,36,20.00
2015,06,27,06,37,20.00
2015,06,27,06,38,20.10
2015,06,27,06,39,20.10
2015,06,27,06,40,20.20
2015,06,27,06,41,20.20
2015,06,27,06,42,20.20
2015,06,27,06,43,20.20
2015,06,27,06,44,20.30
2015,06,27,06,45,20.30
2015,06,27,06,46,20.30
2015,06,27,06,47,20.30
2015,06,27,06,48,20.30
2015,06,27,06,49,20.30
2015,06,27,06,50,20.30
2015,06,27,06,51,20.30
2015,06,27,06,52,20.30
2015,06,27,06,53,20.30
2015,06,27,06,54,20.30
2015,06,27,06,55,20.30
2015,06,27,06,56,20.30
2015,06,27,06,57,20.30
2015,06,27,06,58,20.30
2015,06,27,06,59,20.30
2015,06,27,07,00,20.30
2015,06,27,07,01,20.40
2015,06,27,07,02,20.40
2015,06,27,07,03,20.40
2015,06,27,07,04,20.40
2015,06,27,07,05,20.50
2015,06,27,07,06,20.50
2015,06,27,07,07,20.60
2015,06,27,07,08,20.60
2015,06,27,07,09,20.60
2015,06,27,07,10,20.70
2015,06,27,07,11,20.80
2015,06,27,07,12,20.80
2015,06,27,07,13,20.90
2015,06,27,07,14,21.00
2015,06,27,07,15,21.00
2015,06,27,07,16,21.10
2015,06,27,07,17,21.20
2015,06,27,07,18,21.30
2015,06,27,07,19,21.30
2015,06,27,07,20,21.40
2015,06,27,07,21,21.50
2015,06,27,07,22,21.70
2015,06,27,07,23,21.80
2015,06,27,07,24,21.80
2015,06,27,07,25,21.90
2015,06,27,07,26,21.90
2015,06,27,07,27,22.00
2015,06,27,07,28,22.00
2015,06,27,07,29,22.10
2015,06,27,07,30,22.10
2015,06,27,07,31,22.20
2015,06,27,07,32,22.20
2015,06,27,07,33,22.20
2015,06,27,07,34,22.20
2015,06,27,07,35,22.30
2015,06,27,07,36,22.30
2015,06,27,07,37,22.30
2015,06,27,07,38,22.40
2015,06,27,07,39,22.50
2015,06,27,07,40,22.60
2015,06,27,07,41,22.70
2015,06,27,07,42,22.80
2015,06,27,07,43,22.90
2015,06,27,07,44,22.90
2015,06,27,07,45,22.90
2015,06,27,07,46,22.90
2015,06,27,07,47,23.00
2015,06,27,07,48,23.00
2015,06,27,07,49,23.10
2015,06,27,07,50,23.20
2015,06,27,07,51,23.30
2015,06,27,07,52,23.30
2015,06,27,07,53,23.40
2015,06,27,07,54,23.50
2015,06,27,07,55,23.50
2015,06,27,07,56,23.60
2015,06,27,07,57,23.60
2015,06,27,07,58,23.60
2015,06,27,07,59,23.60
2015,06,27,08,00,23.60
2015,06,27,08,01,23.60
2015,06,27,08,02,23.70
2015,06,27,08,03,23.70
2015,06,27,08,04,23.80
2015,06,27,08,05,23.80
2015,06,27,08,06,23.80
2015,06,27,08,07,23.80
2015,06,27,08,08,23.80
2015,06,27,08,09,23.90
2015,06,27,08,10,24.00
2015,06,27,08,11,24.00
2015,06,27,08,12,24.00
2015,06,27,08,13,24.00
2015,06,27,08,14,23.90
2015,06,27,08,15,23.90
2015,06,27,08,16,23.90
2015,06,27,08,17,23.80
2015,06,27,08,18,23.60
2015,06,27,08,19,23.50
2015,06,27,08,20,23.50
2015,06,27,08,21,23.50
2015,06,27,08,22,23.60
2015,06,27,08,23,23.60
2015,06,27,08,24,23.70
2015,06,27,08,25,23.70
2015,06,27,08,26,23.80
2015,06,27,08,27,23.90
2015,06,27,08,28,24.00
2015,06,27,08,29,24.00
2015,06,27,08,30,24.10
2015,06,27,08,31,24.20
2015,06,27,08,32,24.20
2015,06,27,08,33,24.20
2015,06,27,08,34,24.20
2015,06,27,08,35,24.30
2015,06,27,08,36,24.30
2015,06,27,08,37,24.20
2015,06,27,08,38,24.20
2015,06,27,08,39,24.20
2015,06,27,08,40,24.20
2015,06,27,08,41,24.20
2015,06,27,08,42,24.20
2015,06,27,08,43,24.30
2015,06,27,08,44,24.30
2015,06,27,08,45,24.30
2015,06,27,08,46,24.40
2015,06,27,08,47,24.40
2015,06,27,08,48,24.40
2015,06,27,08,49,24.30
2015,06,27,08,50,24.40
2015,06,27,08,51,24.40
2015,06,27,08,52,24.40
2015,06,27,08,53,24.40
2015,06,27,08,54,24.40
2015,06,27,08,55,24.40
2015,06,27,08,56,24.40
2015,06,27,08,57,24.40
2015,06,27,08,58,24.40
2015,06,27,08,59,24.40
2015,06,27,09,00,24.40
2015,06,27,09,01,24.40
2015,06,27,09,02,24.40
2015,06,27,09,03,24.40
2015,06,27,09,04,24.40
2015,06,27,09,05,24.40
2015,06,27,09,06,24.40
2015,06,27,09,07,24.40
2015,06,27,09,08,24.50
2015,06,27,09,09,24.50
2015,06,27,09,10,24.60
2015,06,27,09,11,24.70
2015,06,27,09,12,24.80
2015,06,27,09,13,24.80
2015,06,27,09,14,24.90
2015,06,27,09,15,25.00
2015,06,27,09,16,25.10
2015,06,27,09,17,25.20
2015,06,27,09,18,25.20
2015,06,27,09,19,25.30
2015,06,27,09,20,25.30
2015,06,27,09,21,25.30
2015,06,27,09,22,25.30
2015,06,27,09,23,25.40
2015,06,27,09,24,25.50
2015,06,27,09,25,25.50
2015,06,27,09,26,25.60
2015,06,27,09,27,25.60
2015,06,27,09,28,25.60
2015,06,27,09,29,25.60
2015,06,27,09,30,25.60
2015,06,27,09,31,25.60
2015,06,27,09,32,25.50
2015,06,27,09,33,25.50
2015,06,27,09,34,25.50
2015,06,27,09,35,25.60
2015,06,27,09,36,25.60
2015,06,27,09,37,25.60
2015,06,27,09,38,25.70
2015,06,27,09,39,25.70
2015,06,27,09,40,25.70
2015,06,27,09,41,25.80
2015,06,27,09,42,25.80
2015,06,27,09,43,25.80
2015,06,27,09,44,25.80
2015,06,27,09,45,25.80
2015,06,27,09,46,25.80
2015,06,27,09,47,25.80
2015,06,27,09,48,25.90
2015,06,27,09,49,25.80
2015,06,27,09,50,25.80
2015,06,27,09,51,25.80
2015,06,27,09,52,25.80
2015,06,27,09,53,25.80
2015,06,27,09,54,25.80
2015,06,27,09,55,25.80
2015,06,27,09,56,25.80
2015,06,27,09,57,25.80
2015,06,27,09,58,25.80
2015,06,27,09,59,25.80
2015,06,27,10,00,25.80
2015,06,27,10,01,25.90
2015,06,27,10,02,25.90
2015,06,27,10,03,25.90
2015,06,27,10,04,25.90
2015,06,27,10,05,25.70
2015,06,27,10,06,25.70
2015,06,27,10,07,25.60
2015,06,27,10,08,25.40
2015,06,27,10,09,25.30
2015,06,27,10,10,25.30
2015,06,27,10,11,25.30
2015,06,27,10,12,25.20
2015,06,27,10,13,25.20
2015,06,27,10,14,25.20
2015,06,27,10,15,25.20
2015,06,27,10,16,25.10
2015,06,27,10,17,25.10
2015,06,27,10,18,25.10
2015,06,27,10,19,25.20
2015,06,27,10,20,25.30
2015,06,27,10,21,25.30
2015,06,27,10,22,25.30
2015,06,27,10,23,25.40
2015,06,27,10,24,25.40
2015,06,27,10,25,25.40
2015,06,27,10,26,25.50
2015,06,27,10,27,25.60
2015,06,27,10,28,25.60
2015,06,27,10,29,25.70
2015,06,27,10,30,25.80
2015,06,27,10,31,25.80
2015,06,27,10,32,25.90
2015,06,27,10,33,25.90
2015,06,27,10,34,25.90
2015,06,27,10,35,25.90
2015,06,27,10,36,26.00
2015,06,27,10,37,26.10
2015,06,27,10,38,26.10
2015,06,27,10,39,26.10
2015,06,27,10,40,26.10
2015,06,27,10,41,26.20
2015,06,27,10,42,26.30
2015,06,27,10,43,26.40
2015,06,27,10,44,26.40
2015,06,27,10,45,26.50
2015,06,27,10,46,26.60
2015,06,27,10,47,26.60
2015,06,27,10,48,26.70
2015,06,27,10,49,26.80
2015,06,27,10,50,26.80
2015,06,27,10,51,26.90
2015,06,27,10,52,26.90
2015,06,27,10,53,26.90
2015,06,27,10,54,26.90
2015,06,27,10,55,26.90
2015,06,27,10,56,26.90
2015,06,27,10,57,26.80
2015,06,27,10,58,26.80
2015,06,27,10,59,26.70
2015,06,27,11,00,26.70
2015,06,27,11,01,26.70
2015,06,27,11,02,26.70
2015,06,27,11,03,26.70
2015,06,27,11,04,26.80
2015,06,27,11,05,26.80
2015,06,27,11,06,26.90
2015,06,27,11,07,26.90
2015,06,27,11,08,27.00
2015,06,27,11,09,27.00
2015,06,27,11,10,27.00
2015,06,27,11,11,26.90
2015,06,27,11,12,26.90
2015,06,27,11,13,26.90
2015,06,27,11,14,27.00
2015,06,27,11,15,27.10
2015,06,27,11,16,27.20
2015,06,27,11,17,27.30
2015,06,27,11,18,27.30
2015,06,27,11,19,27.40
2015,06,27,11,20,27.50
2015,06,27,11,21,27.60
2015,06,27,11,22,27.80
2015,06,27,11,23,27.90
2015,06,27,11,24,28.00
2015,06,27,11,25,28.20
2015,06,27,11,26,28.30
2015,06,27,11,27,28.40
2015,06,27,11,28,28.40
2015,06,27,11,29,28.60
2015,06,27,11,30,28.60
2015,06,27,11,31,28.70
2015,06,27,11,32,28.80
2015,06,27,11,33,28.70
2015,06,27,11,34,28.60
2015,06,27,11,35,28.50
2015,06,27,11,36,28.30
2015,06,27,11,37,28.10
2015,06,27,11,38,27.80
2015,06,27,11,39,27.60
2015,06,27,11,40,27.40
2015,06,27,11,41,27.20
2015,06,27,11,42,27.10
2015,06,27,11,43,27.00
2015,06,27,11,44,26.90
2015,06,27,11,45,26.80
2015,06,27,11,46,26.80
2015,06,27,11,47,26.80
2015,06,27,11,48,26.80
2015,06,27,11,49,26.80
2015,06,27,11,50,26.80
2015,06,27,11,51,26.80
2015,06,27,11,52,26.80
2015,06,27,11,53,26.80
2015,06,27,11,54,26.90
2015,06,27,11,55,27.00
2015,06,27,11,56,27.10
2015,06,27,11,57,27.10
2015,06,27,11,58,27.30
2015,06,27,11,59,27.40
2015,06,27,12,00,27.50
2015,06,27,12,01,27.70
2015,06,27,12,02,27.80
2015,06,27,12,03,28.00
2015,06,27,12,04,28.00
2015,06,27,12,05,28.00
2015,06,27,12,06,27.90
2015,06,27,12,07,27.80
2015,06,27,12,08,27.70
2015,06,27,12,09,27.70
2015,06,27,12,10,27.60
2015,06,27,12,11,27.60
2015,06,27,12,12,27.60
2015,06,27,12,13,27.60
2015,06,27,12,14,27.60
2015,06,27,12,15,27.60
2015,06,27,12,16,27.60
2015,06,27,12,17,27.70
2015,06,27,12,18,27.70
2015,06,27,12,19,27.70
2015,06,27,12,20,27.80
2015,06,27,12,21,27.80
2015,06,27,12,22,27.70
2015,06,27,12,23,27.70
2015,06,27,12,24,27.90
2015,06,27,12,25,27.90
2015,06,27,12,26,27.80
2015,06,27,12,27,27.80
2015,06,27,12,28,27.90
2015,06,27,12,29,28.00
2015,06,27,12,30,28.00
2015,06,27,12,31,28.10
2015,06,27,12,32,28.20
2015,06,27,12,33,28.20
2015,06,27,12,34,28.20
2015,06,27,12,35,28.30
2015,06,27,12,36,28.30
2015,06,27,12,37,28.30
2015,06,27,12,38,28.30
2015,06,27,12,39,28.40
2015,06,27,12,40,28.60
2015,06,27,12,41,28.70
2015,06,27,12,42,28.80
2015,06,27,12,43,29.00
2015,06,27,12,44,29.10
2015,06,27,12,45,29.20
2015,06,27,12,46,29.20
2015,06,27,12,47,29.30
2015,06,27,12,48,29.30
2015,06,27,12,49,29.30
2015,06,27,12,50,29.30
2015,06,27,12,51,29.30
2015,06,27,12,52,29.30
2015,06,27,12,53,29.30
2015,06,27,12,54,29.30
2015,06,27,12,55,29.30
2015,06,27,12,56,29.30
2015,06,27,12,57,29.30
2015,06,27,12,58,29.40
2015,06,27,12,59,29.40
2015,06,27,13,00,29.40
2015,06,27,13,01,29.40
2015,06,27,13,02,29.40
2015,06,27,13,03,29.50
2015,06,27,13,04,29.60
2015,06,27,13,05,29.50
2015,06,27,13,06,29.40
2015,06,27,13,07,29.30
2015,06,27,13,08,29.20
2015,06,27,13,09,29.30
2015,06,27,13,10,29.50
2015,06,27,13,11,29.60
2015,06,27,13,12,29.80
2015,06,27,13,13,29.80
2015,06,27,13,14,29.80
2015,06,27,13,15,29.80
2015,06,27,13,16,29.70
2015,06,27,13,17,29.80
2015,06,27,13,18,29.80
2015,06,27,13,19,29.80
2015,06,27,13,20,29.70
2015,06,27,13,21,29.80
2015,06,27,13,22,29.70
2015,06,27,13,23,29.70
2015,06,27,13,24,29.80
2015,06,27,13,25,29.70
2015,06,27,13,26,29.60
2015,06,27,13,27,29.40
2015,06,27,13,28,29.30
2015,06,27,13,29,29.40
2015,06,27,13,30,29.60
2015,06,27,13,31,29.60
2015,06,27,13,32,29.50
2015,06,27,13,33,29.50
2015,06,27,13,34,29.40
2015,06,27,13,35,29.40
2015,06,27,13,36,29.40
2015,06,27,13,37,29.40
2015,06,27,13,38,29.30
2015,06,27,13,39,29.30
2015,06,27,13,40,29.30
2015,06,27,13,41,29.30
2015,06,27,13,42,29.30
2015,06,27,13,43,29.30
2015,06,27,13,44,29.20
2015,06,27,13,45,29.20
2015,06,27,13,46,29.20
2015,06,27,13,47,29.10
2015,06,27,13,48,29.10
2015,06,27,13,49,29.10
2015,06,27,13,50,29.10
2015,06,27,13,51,29.20
2015,06,27,13,52,29.30
2015,06,27,13,53,29.30
2015,06,27,13,54,29.30
2015,06,27,13,55,29.20
2015,06,27,13,56,29.20
2015,06,27,13,57,29.20
2015,06,27,13,58,29.10
2015,06,27,13,59,29.10
2015,06,27,14,00,29.10
2015,06,27,14,01,29.10
2015,06,27,14,02,29.20
2015,06,27,14,03,29.20
2015,06,27,14,04,29.40
2015,06,27,14,05,29.60
2015,06,27,14,06,29.80
2015,06,27,14,07,30.00
2015,06,27,14,08,30.20
2015,06,27,14,09,30.30
2015,06,27,14,10,30.50
2015,06,27,14,11,30.60
2015,06,27,14,12,30.80
2015,06,27,14,13,30.80
2015,06,27,14,14,30.80
2015,06,27,14,15,31.00
2015,06,27,14,16,31.20
2015,06,27,14,17,31.40
2015,06,27,14,18,31.50
2015,06,27,14,19,31.70
2015,06,27,14,20,31.80
2015,06,27,14,21,31.70
2015,06,27,14,22,31.70
2015,06,27,14,23,31.60
2015,06,27,14,24,31.50
2015,06,27,14,25,31.30
2015,06,27,14,26,31.20
2015,06,27,14,27,31.20
2015,06,27,14,28,31.20
2015,06,27,14,29,31.20
2015,06,27,14,30,31.30
2015,06,27,14,31,31.30
2015,06,27,14,32,31.30
2015,06,27,14,33,31.40
2015,06,27,14,34,31.50
2015,06,27,14,35,31.50
2015,06,27,14,36,31.60
2015,06,27,14,37,31.60
2015,06,27,14,38,31.60
2015,06,27,14,39,31.80
2015,06,27,14,40,31.80
2015,06,27,14,41,31.90
2015,06,27,14,42,31.90
2015,06,27,14,43,31.90
2015,06,27,14,44,31.90
2015,06,27,14,45,31.90
2015,06,27,14,46,32.00
2015,06,27,14,47,32.10
2015,06,27,14,48,32.10
2015,06,27,14,49,32.20
2015,06,27,14,50,32.30
2015,06,27,14,51,32.30
2015,06,27,14,52,32.40
2015,06,27,14,53,32.40
2015,06,27,14,54,32.30
2015,06,27,14,55,32.20
2015,06,27,14,56,32.20
2015,06,27,14,57,32.10
2015,06,27,14,58,32.00
2015,06,27,14,59,31.90
2015,06,27,15,00,31.90
2015,06,27,15,01,31.90
2015,06,27,15,02,31.90
2015,06,27,15,03,31.80
2015,06,27,15,04,31.80
2015,06,27,15,05,31.80
2015,06,27,15,06,31.70
2015,06,27,15,07,31.70
2015,06,27,15,08,31.70
2015,06,27,15,09,31.80
2015,06,27,15,10,31.70
2015,06,27,15,11,31.70
2015,06,27,15,12,31.70
2015,06,27,15,13,31.80
2015,06,27,15,14,31.90
2015,06,27,15,15,31.90
2015,06,27,15,16,32.00
2015,06,27,15,17,32.10
2015,06,27,15,18,32.10
2015,06,27,15,19,32.10
2015,06,27,15,20,32.20
2015,06,27,15,21,32.30
2015,06,27,15,22,32.30
2015,06,27,15,23,32.40
2015,06,27,15,24,32.40
2015,06,27,15,25,32.40
2015,06,27,15,26,32.30
2015,06,27,15,27,32.20
2015,06,27,15,28,32.20
2015,06,27,15,29,32.20
2015,06,27,15,30,32.20
2015,06,27,15,31,32.10
2015,06,27,15,32,32.10
2015,06,27,15,33,32.00
2015,06,27,15,34,32.00
2015,06,27,15,35,32.00
2015,06,27,15,36,32.00
2015,06,27,15,37,32.00
2015,06,27,15,38,32.00
2015,06,27,15,39,32.00
2015,06,27,15,40,32.00
2015,06,27,15,41,32.10
2015,06,27,15,42,32.10
2015,06,27,15,43,32.20
2015,06,27,15,44,32.40
2015,06,27,15,45,32.50
2015,06,27,15,46,32.60
2015,06,27,15,47,32.60
2015,06,27,15,48,32.80
2015,06,27,15,49,32.90
2015,06,27,15,50,33.00
2015,06,27,15,51,33.00
2015,06,27,15,52,32.90
2015,06,27,15,53,32.90
2015,06,27,15,54,32.80
2015,06,27,15,55,32.70
2015,06,27,15,56,32.50
2015,06,27,15,57,32.40
2015,06,27,15,58,32.40
2015,06,27,15,59,32.30
2015,06,27,16,00,32.30
2015,06,27,16,01,32.30
2015,06,27,16,02,32.30
2015,06,27,16,03,32.30
2015,06,27,16,04,32.40
2015,06,27,16,05,32.50
2015,06,27,16,06,32.50
2015,06,27,16,07,32.60
2015,06,27,16,08,32.70
2015,06,27,16,09,32.70
2015,06,27,16,10,32.80
2015,06,27,16,11,32.90
2015,06,27,16,12,32.90
2015,06,27,16,13,32.90
2015,06,27,16,14,32.90
2015,06,27,16,15,32.90
2015,06,27,16,16,32.90
2015,06,27,16,17,32.90
2015,06,27,16,18,32.90
2015,06,27,16,19,32.90
2015,06,27,16,20,32.90
2015,06,27,16,21,32.80
2015,06,27,16,22,32.80
2015,06,27,16,23,32.70
2015,06,27,16,24,32.70
2015,06,27,16,25,32.70
2015,06,27,16,26,32.70
2015,06,27,16,27,32.80
2015,06,27,16,28,32.80
2015,06,27,16,29,32.80
2015,06,27,16,30,32.80
2015,06,27,16,31,32.90
2015,06,27,16,32,32.90
2015,06,27,16,33,33.00
2015,06,27,16,34,33.00
2015,06,27,16,35,33.00
2015,06,27,16,36,33.00
2015,06,27,16,37,33.10
2015,06,27,16,38,33.00
2015,06,27,16,39,33.00
2015,06,27,16,40,33.00
2015,06,27,16,41,33.10
2015,06,27,16,42,33.20
2015,06,27,16,43,33.20
2015,06,27,16,44,33.20
2015,06,27,16,45,33.20
2015,06,27,16,46,33.20
2015,06,27,16,47,33.20
2015,06,27,16,48,33.10
2015,06,27,16,49,33.00
2015,06,27,16,50,32.90
2015,06,27,16,51,32.90
2015,06,27,16,52,32.90
2015,06,27,16,53,32.90
2015,06,27,16,54,32.80
2015,06,27,16,55,32.80
2015,06,27,16,56,32.70
2015,06,27,16,57,32.80
2015,06,27,16,58,32.90
2015,06,27,16,59,32.90
2015,06,27,17,00,33.00
2015,06,27,17,01,33.10
2015,06,27,17,02,33.10
2015,06,27,17,03,33.10
2015,06,27,17,04,33.10
2015,06,27,17,05,33.20
2015,06,27,17,06,33.20
2015,06,27,17,07,33.20
2015,06,27,17,08,33.20
2015,06,27,17,09,33.20
2015,06,27,17,10,33.10
2015,06,27,17,11,33.20
2015,06,27,17,12,33.20
2015,06,27,17,13,33.20
2015,06,27,17,14,33.20
2015,06,27,17,15,33.20
2015,06,27,17,16,33.20
2015,06,27,17,17,33.20
2015,06,27,17,18,33.10
2015,06,27,17,19,33.10